timestamp,wind_dir_avg,wind_spd_avg,wind_spd_max_dir,wind_spd_gust,battery_voltage,lat,long
2022-08-14 00:04:00+00:00,57.0,4.99,57.0,5.6,12.49,47.59359,-54.27349
2022-08-14 00:14:00+00:00,56.0,5.02,56.0,5.33,12.49,47.59359,-54.27349
2022-08-14 00:24:00+00:00,52.0,4.36,52.0,4.71,12.49,47.59359,-54.27349
2022-08-14 00:34:00+00:00,50.0,4.83,51.0,5.14,12.49,47.59359,-54.27349
2022-08-14 00:44:00+00:00,47.0,4.93,45.0,5.26,12.49,47.59359,-54.27349
2022-08-14 00:54:00+00:00,53.0,4.69,54.0,5.12,12.49,47.59359,-54.27349
2022-08-14 01:04:00+00:00,52.0,4.42,52.0,4.81,12.49,47.59359,-54.27349
2022-08-14 01:14:00+00:00,56.0,3.69,52.0,4.45,12.41,47.59359,-54.27349
2022-08-14 01:24:00+00:00,69.0,3.38,74.0,4.08,12.41,47.59359,-54.27349
2022-08-14 01:34:00+00:00,68.0,3.13,59.0,3.82,12.41,47.59359,-54.27349
2022-08-14 01:44:00+00:00,74.0,3.84,75.0,4.46,12.41,47.59359,-54.27349
2022-08-14 01:54:00+00:00,67.0,4.51,69.0,5.06,12.41,47.59359,-54.27349
2022-08-14 02:04:00+00:00,74.0,4.46,69.0,5.28,12.41,47.59359,-54.27349
2022-08-14 02:14:00+00:00,70.0,3.98,66.0,4.43,12.49,47.59359,-54.27349
2022-08-14 02:24:00+00:00,67.0,4.31,69.0,4.76,12.49,47.59359,-54.27349
2022-08-14 02:34:00+00:00,64.0,4.54,60.0,5.04,12.49,47.59359,-54.27349
2022-08-14 02:44:00+00:00,56.0,4.54,55.0,5.06,12.49,47.59359,-54.27349
2022-08-14 02:54:00+00:00,57.0,4.91,57.0,5.61,12.49,47.59359,-54.27349
2022-08-14 03:04:00+00:00,56.0,4.97,55.0,5.55,12.49,47.59359,-54.27349
2022-08-14 03:14:00+00:00,61.0,4.48,60.0,5.27,12.49,47.59359,-54.27349
2022-08-14 03:24:00+00:00,64.0,4.6,66.0,5.13,12.49,47.59359,-54.27349
2022-08-14 03:34:00+00:00,65.0,4.33,68.0,4.86,12.49,47.59359,-54.27349
2022-08-14 03:44:00+00:00,55.0,4.34,58.0,4.77,12.49,47.59359,-54.27349
2022-08-14 03:54:00+00:00,56.0,3.81,58.0,4.22,12.49,47.59359,-54.27349
2022-08-14 04:04:00+00:00,64.0,5.01,66.0,5.51,12.49,47.59359,-54.27349
2022-08-14 04:14:00+00:00,68.0,4.23,68.0,4.61,12.49,47.59359,-54.27349
2022-08-14 04:24:00+00:00,62.0,3.93,61.0,4.39,12.49,47.59359,-54.27349
2022-08-14 04:34:00+00:00,64.0,3.81,68.0,4.81,12.49,47.59359,-54.27349
2022-08-14 04:44:00+00:00,57.0,4.27,61.0,4.57,12.49,47.59359,-54.27349
2022-08-14 04:54:00+00:00,53.0,4.71,56.0,5.28,12.49,47.59359,-54.27349
2022-08-14 05:04:00+00:00,64.0,4.52,59.0,5.06,12.49,47.59359,-54.27349
2022-08-14 05:14:01+00:00,62.0,4.06,58.0,4.78,12.41,47.59359,-54.27349
2022-08-14 05:24:01+00:00,64.0,3.9,66.0,4.56,12.41,47.59359,-54.27349
2022-08-14 05:34:01+00:00,64.0,4.48,62.0,4.98,12.41,47.59359,-54.27349
2022-08-14 05:44:01+00:00,66.0,4.49,70.0,5.49,12.41,47.59359,-54.27349
2022-08-14 05:54:01+00:00,62.0,5.05,59.0,6.35,12.41,47.59359,-54.27349
2022-08-14 06:04:01+00:00,58.0,5.0,59.0,5.65,12.41,47.59359,-54.27349
2022-08-14 06:14:00+00:00,59.0,6.08,58.0,6.72,12.41,47.59359,-54.27349
2022-08-14 06:24:00+00:00,60.0,6.83,58.0,7.78,12.41,47.59359,-54.27349
2022-08-14 06:34:00+00:00,57.0,6.0,58.0,7.09,12.41,47.59359,-54.27349
2022-08-14 06:44:00+00:00,56.0,6.39,57.0,6.84,12.41,47.59359,-54.27349
2022-08-14 06:54:00+00:00,54.0,6.83,54.0,7.65,12.41,47.59359,-54.27349
2022-08-14 07:04:00+00:00,61.0,5.6,59.0,7.07,12.41,47.59359,-54.27349
2022-08-14 07:14:01+00:00,61.0,5.85,62.0,6.47,12.25,47.59359,-54.27349
2022-08-14 07:24:01+00:00,67.0,5.87,68.0,6.46,12.25,47.59359,-54.27349
2022-08-14 07:34:01+00:00,58.0,6.13,56.0,7.09,12.25,47.59359,-54.27349
2022-08-14 07:44:01+00:00,60.0,5.88,60.0,6.59,12.25,47.59359,-54.27349
2022-08-14 07:54:01+00:00,58.0,5.93,57.0,6.65,12.25,47.59359,-54.27349
2022-08-14 08:04:01+00:00,61.0,5.78,62.0,6.81,12.25,47.59359,-54.27349
2022-08-14 08:14:00+00:00,62.0,5.12,64.0,5.66,12.33,47.59359,-54.27349
2022-08-14 08:24:00+00:00,60.0,5.52,61.0,6.36,12.33,47.59359,-54.27349
2022-08-14 08:34:00+00:00,60.0,6.14,59.0,6.62,12.33,47.59359,-54.27349
2022-08-14 08:44:00+00:00,62.0,5.42,63.0,6.44,12.33,47.59359,-54.27349
2022-08-14 08:54:00+00:00,66.0,5.86,65.0,6.76,12.33,47.59359,-54.27349
2022-08-14 09:04:00+00:00,67.0,5.56,67.0,6.34,12.33,47.59359,-54.27349
2022-08-14 09:14:00+00:00,69.0,5.57,71.0,6.09,12.25,47.59359,-54.27349
2022-08-14 09:24:00+00:00,67.0,5.69,69.0,6.76,12.25,47.59359,-54.27349
2022-08-14 09:34:00+00:00,64.0,5.85,68.0,6.71,12.25,47.59359,-54.27349
2022-08-14 09:44:00+00:00,64.0,5.63,71.0,6.62,12.25,47.59359,-54.27349
2022-08-14 09:54:00+00:00,58.0,5.54,62.0,6.4,12.25,47.59359,-54.27349
2022-08-14 10:04:00+00:00,62.0,6.11,61.0,7.24,12.25,47.59359,-54.27349
2022-08-14 10:14:00+00:00,63.0,5.82,61.0,6.62,12.25,47.59359,-54.27349
2022-08-14 10:24:00+00:00,70.0,6.32,72.0,6.74,12.25,47.59359,-54.27349
2022-08-14 10:34:00+00:00,70.0,6.05,64.0,6.36,12.25,47.59359,-54.27349
2022-08-14 10:44:00+00:00,69.0,5.22,73.0,6.38,12.25,47.59359,-54.27349
2022-08-14 10:54:00+00:00,66.0,4.59,68.0,5.59,12.25,47.59359,-54.27349
2022-08-14 11:04:00+00:00,65.0,4.49,67.0,5.25,12.25,47.59359,-54.27349
2022-08-14 11:14:01+00:00,62.0,4.69,59.0,5.66,12.33,47.59359,-54.27349
2022-08-14 11:24:01+00:00,51.0,4.84,52.0,5.53,12.33,47.59359,-54.27349
2022-08-14 11:34:01+00:00,50.0,4.18,51.0,5.02,12.33,47.59359,-54.27349
2022-08-14 11:44:01+00:00,47.0,3.89,53.0,4.48,12.33,47.59359,-54.27349
2022-08-14 11:54:01+00:00,58.0,4.21,58.0,4.77,12.33,47.59359,-54.27349
2022-08-14 12:04:01+00:00,62.0,4.36,57.0,4.82,12.33,47.59359,-54.27349
2022-08-14 12:14:01+00:00,80.0,2.43,87.0,3.72,12.81,47.59359,-54.27349
2022-08-14 12:24:01+00:00,75.0,3.41,66.0,4.47,12.81,47.59359,-54.27349
2022-08-14 12:34:01+00:00,71.0,3.64,69.0,4.62,12.81,47.59359,-54.27349
2022-08-14 12:44:01+00:00,60.0,3.82,60.0,4.1,12.81,47.59359,-54.27349
2022-08-14 12:54:01+00:00,61.0,3.92,53.0,4.55,12.81,47.59359,-54.27349
2022-08-14 13:04:01+00:00,67.0,4.3,64.0,5.09,12.81,47.59359,-54.27349
2022-08-14 13:14:00+00:00,68.0,3.5,75.0,4.23,13.13,47.59359,-54.27349
2022-08-14 13:24:00+00:00,66.0,3.19,63.0,3.9,13.13,47.59359,-54.27349
2022-08-14 13:34:00+00:00,75.0,2.87,71.0,4.06,13.13,47.59359,-54.27349
2022-08-14 13:44:00+00:00,66.0,3.08,67.0,3.56,13.13,47.59359,-54.27349
2022-08-14 13:54:00+00:00,41.0,4.1,43.0,4.43,13.13,47.59359,-54.27349
2022-08-14 14:04:00+00:00,61.0,3.41,59.0,3.86,13.13,47.59359,-54.27349
2022-08-14 14:14:00+00:00,51.0,3.85,52.0,4.3,13.44,47.59359,-54.27349
2022-08-14 14:24:00+00:00,50.0,3.68,55.0,4.24,13.44,47.59359,-54.27349
2022-08-14 14:34:00+00:00,52.0,3.81,60.0,4.23,13.44,47.59359,-54.27349
2022-08-14 14:44:00+00:00,53.0,3.32,56.0,3.79,13.44,47.59359,-54.27349
2022-08-14 14:54:00+00:00,52.0,3.4,56.0,4.21,13.44,47.59359,-54.27349
2022-08-14 15:04:00+00:00,66.0,3.27,61.0,4.15,13.44,47.59359,-54.27349
2022-08-14 15:14:00+00:00,72.0,2.83,57.0,3.72,13.68,47.59359,-54.27349
2022-08-14 15:24:00+00:00,78.0,3.01,56.0,4.44,13.68,47.59359,-54.27349
2022-08-14 15:34:00+00:00,75.0,3.27,69.0,4.42,13.68,47.59359,-54.27349
2022-08-14 15:44:00+00:00,89.0,3.1,99.0,4.24,13.68,47.59359,-54.27349
2022-08-14 15:54:00+00:00,87.0,2.75,108.0,4.49,13.68,47.59359,-54.27349
2022-08-14 16:04:00+00:00,99.0,2.93,106.0,4.21,13.68,47.59359,-54.27349
2022-08-14 16:14:00+00:00,103.0,2.8,106.0,3.86,13.68,47.59359,-54.27349
2022-08-14 16:24:00+00:00,74.0,2.2,89.0,2.92,13.68,47.59359,-54.27349
2022-08-14 16:34:00+00:00,51.0,2.86,51.0,3.07,13.68,47.59359,-54.27349
2022-08-14 16:44:00+00:00,24.0,5.26,39.0,6.51,13.68,47.59359,-54.27349
2022-08-14 16:54:00+00:00,26.0,4.2,33.0,4.95,13.68,47.59359,-54.27349
2022-08-14 17:04:00+00:00,34.0,4.91,40.0,5.61,13.68,47.59359,-54.27349
2022-08-14 17:14:01+00:00,26.0,4.27,29.0,4.75,13.44,47.59359,-54.27349
2022-08-14 17:24:01+00:00,33.0,4.74,34.0,5.22,13.44,47.59359,-54.27349
2022-08-14 17:34:01+00:00,37.0,4.4,37.0,4.8,13.44,47.59359,-54.27349
2022-08-14 17:44:01+00:00,39.0,4.09,36.0,4.49,13.44,47.59359,-54.27349
2022-08-14 17:54:01+00:00,57.0,2.94,53.0,3.47,13.44,47.59359,-54.27349
2022-08-14 18:04:01+00:00,52.0,4.03,51.0,4.39,13.44,47.59359,-54.27349
2022-08-14 18:14:00+00:00,34.0,2.98,41.0,3.35,13.21,47.59359,-54.27349
2022-08-14 18:24:00+00:00,327.0,3.96,329.0,4.17,13.21,47.59359,-54.27349
2022-08-14 18:34:00+00:00,10.0,4.14,8.0,4.56,13.21,47.59359,-54.27349
2022-08-14 18:44:00+00:00,355.0,4.51,357.0,4.72,13.21,47.59359,-54.27349
2022-08-14 18:54:00+00:00,352.0,3.73,355.0,3.97,13.21,47.59359,-54.27349
2022-08-14 19:04:00+00:00,15.0,2.21,14.0,2.78,13.21,47.59359,-54.27349
2022-08-14 19:14:00+00:00,22.0,1.35,32.0,1.64,13.37,47.59359,-54.27349
2022-08-14 19:24:00+00:00,6.0,2.38,4.0,2.49,13.37,47.59359,-54.27349
2022-08-14 19:34:00+00:00,331.0,3.97,330.0,4.09,13.37,47.59359,-54.27349
2022-08-14 19:44:00+00:00,342.0,3.49,343.0,3.59,13.37,47.59359,-54.27349
2022-08-14 19:54:00+00:00,28.0,0.97,24.0,1.32,13.37,47.59359,-54.27349
2022-08-14 20:04:00+00:00,21.0,1.69,30.0,1.85,13.37,47.59359,-54.27349
2022-08-14 20:14:01+00:00,26.0,1.67,30.0,1.84,13.21,47.59359,-54.27349
2022-08-14 20:24:01+00:00,20.0,1.36,24.0,1.52,13.21,47.59359,-54.27349
2022-08-14 20:34:01+00:00,1.0,0.83,0.0,1.01,13.21,47.59359,-54.27349
2022-08-14 20:44:01+00:00,233.0,0.78,230.0,1.09,13.21,47.59359,-54.27349
2022-08-14 20:54:01+00:00,213.0,1.8,214.0,2.4,13.21,47.59359,-54.27349
2022-08-14 21:04:01+00:00,222.0,4.28,222.0,4.99,13.21,47.59359,-54.27349
2022-08-14 21:14:01+00:00,213.0,4.22,213.0,4.81,12.97,47.59359,-54.27349
2022-08-14 21:24:01+00:00,215.0,4.3,216.0,4.78,12.97,47.59359,-54.27349
2022-08-14 21:34:01+00:00,227.0,4.82,225.0,5.38,12.97,47.59359,-54.27349
2022-08-14 21:44:01+00:00,217.0,4.37,206.0,5.41,12.97,47.59359,-54.27349
2022-08-14 21:54:01+00:00,245.0,3.82,233.0,4.83,12.97,47.59359,-54.27349
2022-08-14 22:04:01+00:00,239.0,4.56,240.0,5.04,12.97,47.59359,-54.27349
2022-08-14 22:14:01+00:00,242.0,4.43,241.0,4.78,12.57,47.59359,-54.27349
2022-08-14 22:24:01+00:00,315.0,0.01,238.0,0.0,12.57,47.59359,-54.27349
2022-08-14 22:34:01+00:00,315.0,0.01,238.0,0.0,12.57,47.59359,-54.27349
2022-08-14 22:44:01+00:00,244.0,3.71,243.0,3.86,12.57,47.59359,-54.27349
2022-08-14 22:54:01+00:00,253.0,6.93,254.0,7.48,12.57,47.59359,-54.27349
2022-08-14 23:04:01+00:00,315.0,0.01,229.0,0.0,12.57,47.59359,-54.27349
2022-08-14 23:14:00+00:00,226.0,3.48,227.0,4.44,12.41,47.59359,-54.27349
2022-08-14 23:24:00+00:00,211.0,4.41,209.0,5.04,12.41,47.59359,-54.27349
2022-08-14 23:34:00+00:00,195.0,4.14,201.0,4.68,12.41,47.59359,-54.27349
2022-08-14 23:44:00+00:00,212.0,5.23,215.0,5.7,12.41,47.59359,-54.27349
2022-08-14 23:54:00+00:00,217.0,4.73,224.0,5.11,12.41,47.59359,-54.27349
